When you browse on this site, cookies collect data to enhance your experience and personalize the content and advertising you see.
Visit our Privacy Policy to learn more. By continuing to use the site, you agree to this use of cookies and data.
  • In Portugal
  • List of Countries
  • For 7 days
  • Water Temperature
  • Weather Map
  • Weather Widgets
  • user-avatar
    Login

    Hourly Weather Nashavar

    Today, 18 October, Friday

    Time Temperature Precipitation Wind Pressure Humidity
    00:00 +25°C° 0.9 mm 2 mps 731 mmHg 58%
    01:00 +24°C° 0.9 mm 2 mps 731 mmHg 61%
    02:00 +23°C° 0.9 mm 2 mps 731 mmHg 64%
    03:00 +23°C° 1 mm 2 mps 731 mmHg 66%
    04:00 +23°C° 1 mm 2 mps 731 mmHg 67%
    05:00 +22°C° 0 mm 1 mps 731 mmHg 71%
    06:00 +23°C° 0.2 mm 1 mps 732 mmHg 66%
    07:00 +23°C° 0.2 mm 1 mps 733 mmHg 61%
    08:00 +24°C° 0.2 mm 1 mps 733 mmHg 56%
    09:00 +25°C° 0.6 mm 1 mps 733 mmHg 51%
    10:00 +26°C° 0.6 mm 1 mps 733 mmHg 46%
    11:00 +26°C° 0 mm 1 mps 734 mmHg 44%
    12:00 +27°C° 0.1 mm 1 mps 734 mmHg 41%
    13:00 +28°C° 0.1 mm 1 mps 734 mmHg 39%
    14:00 +28°C° 0.1 mm 1 mps 733 mmHg 37%
    15:00 +28°C° 0 mm 1 mps 733 mmHg 38%
    16:00 +28°C° 0 mm 1 mps 733 mmHg 39%
    17:00 +27°C° 0 mm 1 mps 733 mmHg 40%
    18:00 +27°C° 0 mm 1 mps 733 mmHg 42%
    19:00 +26°C° 0 mm 1 mps 733 mmHg 44%
    20:00 +26°C° 0 mm 1 mps 733 mmHg 46%
    21:00 +25°C° 0 mm 1 mps 733 mmHg 46%
    22:00 +25°C° 0 mm 1 mps 733 mmHg 46%
    23:00 +25°C° 0 mm 1 mps 733 mmHg 46%

    Tomorrow, 19 October, Saturday

    Time Temperature Precipitation Wind Pressure Humidity
    00:00 +24°C° 0 mm 1 mps 733 mmHg 47%
    01:00 +24°C° 0 mm 1 mps 733 mmHg 48%
    02:00 +24°C° 0 mm 1 mps 733 mmHg 48%
    03:00 +23°C° 0 mm 1 mps 733 mmHg 50%
    04:00 +23°C° 0 mm 1 mps 733 mmHg 51%
    05:00 +22°C° 0 mm 1 mps 733 mmHg 52%
    06:00 +23°C° 0 mm 1 mps 733 mmHg 50%
    07:00 +24°C° 0 mm 1 mps 733 mmHg 47%
    08:00 +25°C° 0 mm 1 mps 734 mmHg 45%
    09:00 +26°C° 0 mm 1 mps 734 mmHg 41%
    10:00 +27°C° 0 mm 1 mps 734 mmHg 37%
    11:00 +28°C° 0 mm 1 mps 734 mmHg 33%
    12:00 +29°C° 0 mm 1 mps 734 mmHg 31%
    13:00 +30°C° 0 mm 1 mps 734 mmHg 29%
    14:00 +31°C° 0 mm 1 mps 733 mmHg 26%
    15:00 +30°C° 0 mm 1 mps 733 mmHg 28%
    16:00 +30°C° 0 mm 1 mps 732 mmHg 30%
    17:00 +30°C° 0 mm 1 mps 732 mmHg 32%
    18:00 +29°C° 0 mm 1 mps 732 mmHg 36%
    19:00 +27°C° 0 mm 1 mps 733 mmHg 40%
    20:00 +24°C° 0 mm 0 mps 733 mmHg 43%
    21:00 +26°C° 0 mm 1 mps 733 mmHg 44%
    22:00 +25°C° 0 mm 1 mps 733 mmHg 44%
    23:00 +24°C° 0 mm 1 mps 733 mmHg 44%

    Day after tomorrow, 20 October, Sunday

    Time Temperature Precipitation Wind Pressure Humidity
    00:00 +24°C° 0 mm 1 mps 732 mmHg 45%
    01:00 +24°C° 0 mm 1 mps 732 mmHg 46%
    02:00 +23°C° 0 mm 1 mps 732 mmHg 47%
    03:00 +21°C° 0 mm 0 mps 732 mmHg 48%
    04:00 +20°C° 0 mm 0 mps 732 mmHg 48%
    05:00 +20°C° 0 mm 0 mps 732 mmHg 49%
    06:00 +21°C° 0 mm 0 mps 732 mmHg 45%
    07:00 +22°C° 0 mm 0 mps 733 mmHg 42%
    08:00 +23°C° 0 mm 0 mps 733 mmHg 39%
    09:00 +24°C° 0 mm 0 mps 733 mmHg 36%
    10:00 +27°C° 0 mm 1 mps 733 mmHg 33%
    11:00 +29°C° 0 mm 1 mps 733 mmHg 30%
    12:00 +29°C° 0 mm 1 mps 732 mmHg 29%
    13:00 +30°C° 0 mm 1 mps 732 mmHg 27%
    14:00 +31°C° 0 mm 1 mps 732 mmHg 25%
    15:00 +30°C° 0 mm 1 mps 731 mmHg 27%
    16:00 +30°C° 0 mm 1 mps 731 mmHg 30%
    17:00 +30°C° 0 mm 1 mps 731 mmHg 32%
    18:00 +29°C° 0 mm 1 mps 731 mmHg 34%
    19:00 +28°C° 0 mm 1 mps 731 mmHg 37%
    20:00 +26°C° 0 mm 1 mps 731 mmHg 39%
    21:00 +26°C° 0 mm 1 mps 731 mmHg 40%
    22:00 +25°C° 0 mm 1 mps 731 mmHg 42%
    23:00 +23°C° 0 mm 0 mps 731 mmHg 43%

    21 October, Monday

    Time Temperature Precipitation Wind Pressure Humidity
    00:00 +22°C° 0 mm 0 mps 731 mmHg 44%
    01:00 +22°C° 0 mm 0 mps 731 mmHg 45%
    02:00 +23°C° 0 mm 1 mps 731 mmHg 46%
    03:00 +21°C° 0 mm 0 mps 730 mmHg 46%
    04:00 +21°C° 0 mm 0 mps 730 mmHg 47%
    05:00 +20°C° 0 mm 0 mps 730 mmHg 47%
    06:00 +21°C° 0 mm 0 mps 730 mmHg 44%
    07:00 +22°C° 0 mm 0 mps 731 mmHg 41%
    08:00 +23°C° 0 mm 0 mps 731 mmHg 37%
    09:00 +24°C° 0 mm 0 mps 731 mmHg 35%
    10:00 +27°C° 0 mm 1 mps 731 mmHg 32%
    11:00 +29°C° 0 mm 1 mps 731 mmHg 29%
    12:00 +29°C° 0 mm 1 mps 730 mmHg 28%
    13:00 +30°C° 0 mm 1 mps 730 mmHg 26%
    14:00 +31°C° 0 mm 1 mps 729 mmHg 25%
    15:00 +30°C° 0 mm 1 mps 729 mmHg 27%
    16:00 +30°C° 0 mm 1 mps 729 mmHg 29%
    17:00 +30°C° 0 mm 1 mps 729 mmHg 31%
    18:00 +29°C° 0 mm 1 mps 729 mmHg 34%
    19:00 +27°C° 0 mm 1 mps 729 mmHg 36%
    20:00 +26°C° 0 mm 1 mps 729 mmHg 38%
    21:00 +26°C° 0 mm 1 mps 729 mmHg 39%
    22:00 +25°C° 0 mm 1 mps 729 mmHg 40%
    23:00 +25°C° 0 mm 1 mps 729 mmHg 41%

    22 October, Tuesday

    Time Temperature Precipitation Wind Pressure Humidity
    00:00 +24°C° 0 mm 1 mps 729 mmHg 42%
    01:00 +22°C° 0 mm 0 mps 729 mmHg 44%
    02:00 +21°C° 0 mm 0 mps 729 mmHg 45%
    03:00 +21°C° 0 mm 0 mps 729 mmHg 45%
    04:00 +21°C° 0 mm 0 mps 729 mmHg 45%
    05:00 +20°C° 0 mm 0 mps 728 mmHg 46%
    06:00 +21°C° 0 mm 0 mps 729 mmHg 43%
    07:00 +22°C° 0 mm 0 mps 729 mmHg 40%
    08:00 +23°C° 0 mm 0 mps 729 mmHg 37%
    09:00 +24°C° 0 mm 0 mps 729 mmHg 34%
    10:00 +27°C° 0 mm 1 mps 729 mmHg 32%
    11:00 +29°C° 0 mm 1 mps 729 mmHg 29%
    12:00 +29°C° 0 mm 1 mps 729 mmHg 28%
    13:00 +30°C° 0 mm 1 mps 728 mmHg 27%
    14:00 +30°C° 0 mm 1 mps 728 mmHg 26%
    15:00 +30°C° 0 mm 1 mps 728 mmHg 28%
    16:00 +30°C° 0 mm 1 mps 727 mmHg 30%
    17:00 +29°C° 0 mm 1 mps 727 mmHg 33%
    18:00 +28°C° 0 mm 1 mps 727 mmHg 35%
    19:00 +27°C° 0 mm 1 mps 728 mmHg 37%
    20:00 +26°C° 0 mm 1 mps 728 mmHg 39%
    21:00 +26°C° 0.1 mm 1 mps 728 mmHg 40%
    22:00 +25°C° 0.1 mm 1 mps 728 mmHg 42%
    23:00 +25°C° 0.1 mm 1 mps 728 mmHg 43%

    23 October, Wednesday

    Time Temperature Precipitation Wind Pressure Humidity
    00:00 +24°C° 0.2 mm 1 mps 728 mmHg 45%
    01:00 +24°C° 0.2 mm 1 mps 728 mmHg 47%
    02:00 +24°C° 0.2 mm 1 mps 727 mmHg 48%
    03:00 +23°C° 0.2 mm 1 mps 727 mmHg 49%
    04:00 +23°C° 0.2 mm 1 mps 727 mmHg 50%
    05:00 +23°C° 0.2 mm 1 mps 727 mmHg 50%
    06:00 +23°C° 0 mm 1 mps 728 mmHg 48%
    07:00 +24°C° 0 mm 1 mps 728 mmHg 45%
    08:00 +25°C° 0 mm 1 mps 729 mmHg 42%
    09:00 +26°C° 0 mm 1 mps 729 mmHg 37%
    10:00 +27°C° 0 mm 2 mps 729 mmHg 33%
    11:00 +29°C° 0 mm 2 mps 729 mmHg 29%
    12:00 +29°C° 0 mm 2 mps 728 mmHg 27%
    13:00 +30°C° 0 mm 2 mps 728 mmHg 25%
    14:00 +31°C° 0 mm 2 mps 727 mmHg 24%
    15:00 +30°C° 0 mm 2 mps 727 mmHg 25%
    16:00 +30°C° 0 mm 2 mps 727 mmHg 26%
    17:00 +29°C° 0 mm 2 mps 727 mmHg 27%
    18:00 +28°C° 0 mm 2 mps 727 mmHg 29%
    19:00 +27°C° 0 mm 1 mps 727 mmHg 30%
    20:00 +27°C° 0 mm 1 mps 727 mmHg 31%
    21:00 +26°C° 0 mm 1 mps 728 mmHg 32%
    22:00 +25°C° 0 mm 1 mps 728 mmHg 33%
    23:00 +25°C° 0 mm 1 mps 728 mmHg 34%
    Show more